STARLINK-4691, 53588

Orbit data source: Space-Track

STARLINK-4691, 53588 is a payload satellite owned by SpaceX/Seattle (US) in LEO that was launched on Sun, 28 Aug 2022 UTC via an FALCON 9 launch vehicle from the Air Force Eastern Test Range (AFETR). Payload-class satellites include a variety of spacecraft equipped with specific instruments for various scientific and technological missions. These include communications satellites like Starlink; space stations such as the ISS; scientific satellites like the Hubble; Earth observation satellites from companies like Planet Labs, Umbra, and HawkEye 360; GPS; miniature CubeSats for education and research; and military/defense satellites.

Loading next visibility...
Identifier
53588, 2022-104A
Orbit
LEO
Country
Flag of USUS
Related business
Manufacturer
SpaceX/Seattle
Mission
Operational Commercial Communications
Bus & Motor
STARLINK, Unknown motor
Mass
300 kg wet, ~290 kg dry
Launch date (UTC)
2022-08-28 (3 years ago)
Launch vehicle
FALCON 9
Launch site
Air Force Eastern Test Range (AFETR)
Object type
Payload
Rocket body
Debris
Shape & HBR
Box + 1 Pan, 4.4 m
Radar Cross Section
13.562 m², Large (>1 m²)

Expand to show TLE details & history
Last TLE update: 1 day ago

TLE from 1 day ago
0 STARLINK-4691
1 53588U 22104A   25259.42742915  .00000560  00000-0  53246-4 0  9990
2 53588  53.2169 306.6660 0001100 107.5476 252.5637 15.08832651169786
Epoch: 2025-09-16T10:15Z
TLE epoch observation values (Epoch: 2025-09-16T10:15:29.878Z)
Latitude
0.00002°
Longitude
157.17364°
Altitude
540.891 km
Speed
7.593 km/s
True Right ascension
20h 26m 39s
True Declination
0° 00' 00"
Sunlit
Object was in full shadow at epoch
Visualization orbit readout
Latitude
Unknown
Longitude
Unknown
Altitude
Unknown
Speed
Unknown
Apparent Right ascension
Unknown
Apparent Declination
Unknown
Sunlit
N/A
Visualization observer readout
Local Sidereal Time
04:56:09
Azimuth
Unknown
Elevation
Unknown
Doppler factor
Unknown
Orbital elements
Apogee altitude
540.772 km
Perigee altitude
539.25 km
Semi-major axis
6,918.148 km
Eccentricity
0.00011
Inclination
53.2169°
RAAN
306.666°
Arg. of periapsis
107.5476°
True anomaly
252.55167°
Mean anomaly
252.5637°
Eccentric anomaly
252.55769°
Mean motion
3.77188 °/min
Orbital period
95.44 mins
BSTAR
0.000053246
Loading maneuver chart data...
Computing Atmospheric mass density...
Loading historical data...
Loading historical data...
Loading historical data...
Loading historical data...
Loading historical data...
Loading historical data...
Loading historical data...

Documentation

Showing up to 5 results
|